RYR8976 LBSF-EPKK

Flight info

Callsign RYR8976
Flight time 1h 18m
Altitude 38000
Route OGOTA N133 RESLA DCT LOMOS DCT OVDOT DCT SODGO DCT RUPUG DCT ETNOG DCT KSC DCT KOJOT DCT RAZEC DCT LENOV
Aircraft B738/M-SDFGIJ1LRWY/SB1

Departure

Time 2026-05-04 06:14
Airport Sofia Airport (LBSF)

Arrival

Time 2026-05-04 07:33
Airport Kraków John Paul II International Airport (EPKK)
Time Latitude Longitude Altitude Speed Heading
2026-05-04 06:01 42.69022 23.41081 1749 ft 0 kts 163°
2026-05-04 06:08 42.69021 23.41081 1748 ft 0 kts 163°
2026-05-04 06:08 42.69009 23.41087 1749 ft 4 kts 163°
2026-05-04 06:08 42.68972 23.41110 1749 ft 7 kts 132°
2026-05-04 06:08 42.68993 23.41202 1747 ft 13 kts 49°
2026-05-04 06:09 42.69082 23.41205 1746 ft 13 kts 343°
2026-05-04 06:09 42.69175 23.41164 1745 ft 14 kts 342°
2026-05-04 06:11 42.69427 23.42192 1742 ft 27 kts 95°
2026-05-04 06:11 42.69413 23.42449 1740 ft 27 kts 95°
2026-05-04 06:13 42.69389 23.43945 1740 ft 12 kts
2026-05-04 06:14 42.69770 23.39742 2457 ft 166 kts 278°
2026-05-04 06:14 42.70092 23.38189 2951 ft 178 kts 299°
2026-05-04 06:15 42.70834 23.36806 3493 ft 190 kts 317°
2026-05-04 06:15 42.71949 23.35668 3963 ft 212 kts 334°
2026-05-04 06:15 42.73389 23.35078 4680 ft 225 kts 354°
2026-05-04 06:15 42.74933 23.34827 5629 ft 227 kts 354°
2026-05-04 06:16 42.76514 23.34586 6430 ft 237 kts 355°
2026-05-04 06:16 42.78151 23.34308 7396 ft 241 kts 354°
2026-05-04 06:16 42.79847 23.33953 8077 ft 256 kts 354°
2026-05-04 06:16 42.81613 23.33596 8917 ft 261 kts 355°
2026-05-04 06:17 42.83432 23.33261 9828 ft 265 kts 356°
2026-05-04 06:17 42.85266 23.32945 10545 ft 275 kts 358°
2026-05-04 06:17 42.87216 23.32782 11154 ft 287 kts
2026-05-04 06:17 42.89246 23.32806 11748 ft 302 kts
2026-05-04 06:18 42.91408 23.32867 12359 ft 317 kts
2026-05-04 06:18 42.93614 23.32898 13306 ft 320 kts
2026-05-04 06:18 42.95847 23.32898 14176 ft 325 kts
2026-05-04 06:20 43.12463 23.32753 19871 ft 359 kts
2026-05-04 06:20 43.14979 23.32732 20667 ft 362 kts
2026-05-04 06:21 43.25252 23.32415 23507 ft 380 kts 360°
2026-05-04 06:21 43.27914 23.32079 24126 ft 386 kts 359°
2026-05-04 06:22 43.30564 23.31708 24938 ft 384 kts 358°
2026-05-04 06:22 43.33202 23.31337 25687 ft 385 kts 359°
2026-05-04 06:25 43.69559 23.26732 32856 ft 411 kts 358°
2026-05-04 06:25 43.72374 23.26381 33285 ft 413 kts 358°
2026-05-04 06:26 43.75231 23.26023 33822 ft 411 kts 358°
2026-05-04 06:26 43.78090 23.25665 34312 ft 410 kts 358°
2026-05-04 06:26 43.80912 23.25287 34699 ft 411 kts 356°
2026-05-04 06:26 43.83735 23.24685 35066 ft 414 kts 352°
2026-05-04 06:27 43.94888 23.20680 36657 ft 417 kts 347°
2026-05-04 06:28 43.97672 23.19588 37096 ft 417 kts 347°
2026-05-04 06:28 44.00449 23.18499 37525 ft 415 kts 346°
2026-05-04 06:28 44.03231 23.17414 37766 ft 419 kts 347°
2026-05-04 06:28 44.06028 23.16328 38095 ft 418 kts 347°
2026-05-04 06:29 44.11638 23.14152 38121 ft 417 kts 347°
2026-05-04 06:29 44.17231 23.11986 38121 ft 415 kts 346°
2026-05-04 06:30 44.22785 23.09835 38138 ft 415 kts 347°
2026-05-04 06:30 44.28331 23.07685 38122 ft 415 kts 347°
2026-05-04 06:31 44.33858 23.05539 38117 ft 415 kts 347°
2026-05-04 06:31 44.39429 23.03369 38130 ft 414 kts 347°
2026-05-04 06:33 44.61573 22.94701 38121 ft 416 kts 347°
2026-05-04 06:34 44.67141 22.92509 38108 ft 415 kts 347°
2026-05-04 06:34 44.72690 22.90322 38111 ft 415 kts 347°
2026-05-04 06:36 44.94855 22.81699 38102 ft 412 kts 347°
2026-05-04 06:37 45.00382 22.79541 38098 ft 415 kts 347°
2026-05-04 06:37 45.05936 22.77364 38096 ft 414 kts 347°
2026-05-04 06:38 45.11481 22.75183 38129 ft 414 kts 347°
2026-05-04 06:40 45.33602 22.66441 38132 ft 413 kts 347°
2026-05-04 06:40 45.39124 22.64248 38136 ft 414 kts 347°
2026-05-04 06:41 45.44669 22.62043 38126 ft 414 kts 347°
2026-05-04 06:41 45.50200 22.59837 38116 ft 413 kts 347°
2026-05-04 06:42 45.55723 22.57631 38128 ft 413 kts 347°
2026-05-04 06:44 45.77839 22.48756 38142 ft 413 kts 347°
2026-05-04 06:44 45.83353 22.46529 38136 ft 413 kts 347°
2026-05-04 06:45 45.88882 22.44292 38131 ft 413 kts 347°
2026-05-04 06:45 45.94391 22.42061 38131 ft 413 kts 347°
2026-05-04 06:46 45.99893 22.39828 38135 ft 412 kts 347°
2026-05-04 06:46 46.05446 22.37568 38134 ft 414 kts 347°
2026-05-04 06:48 46.27530 22.28532 38136 ft 414 kts 346°
2026-05-04 06:50 46.49661 22.19405 38136 ft 414 kts 346°
2026-05-04 06:51 46.55206 22.17105 38134 ft 414 kts 346°
2026-05-04 06:51 46.60708 22.14821 38137 ft 415 kts 346°
2026-05-04 06:52 46.66283 22.12499 38138 ft 416 kts 346°
2026-05-04 06:52 46.71810 22.10192 38136 ft 415 kts 346°
2026-05-04 06:53 46.77370 22.07864 38138 ft 414 kts 346°
2026-05-04 06:53 46.82890 22.05551 38144 ft 415 kts 346°
2026-05-04 06:54 46.88430 22.03226 38145 ft 416 kts 346°
2026-05-04 06:54 46.94020 22.00874 38147 ft 418 kts 346°
2026-05-04 06:55 46.99585 21.98525 38149 ft 418 kts 346°
2026-05-04 06:55 47.05118 21.96185 38152 ft 416 kts 346°
2026-05-04 06:57 47.27340 21.86740 38143 ft 418 kts 346°
2026-05-04 06:58 47.32935 21.84349 38139 ft 418 kts 346°
2026-05-04 06:58 47.38493 21.81969 38140 ft 417 kts 346°
2026-05-04 06:59 47.44038 21.79588 38146 ft 417 kts 346°
2026-05-04 06:59 47.49619 21.77188 38145 ft 417 kts 346°
2026-05-04 07:01 47.71899 21.67551 38137 ft 418 kts 346°
2026-05-04 07:02 47.77461 21.65132 38135 ft 417 kts 345°
2026-05-04 07:02 47.83027 21.62706 38138 ft 419 kts 345°
2026-05-04 07:03 47.88603 21.60270 38140 ft 418 kts 345°
2026-05-04 07:03 47.94162 21.57835 38142 ft 418 kts 345°
2026-05-04 07:04 47.99734 21.55390 38140 ft 419 kts 345°
2026-05-04 07:04 48.05293 21.52944 38142 ft 418 kts 345°
2026-05-04 07:05 48.10897 21.50474 38133 ft 418 kts 345°
2026-05-04 07:05 48.16468 21.48013 38130 ft 419 kts 345°
2026-05-04 07:06 48.24818 21.44313 38129 ft 419 kts 345°
2026-05-04 07:07 48.30408 21.41830 38128 ft 419 kts 345°
2026-05-04 07:09 48.52707 21.31865 38129 ft 420 kts 344°
2026-05-04 07:09 48.58305 21.29348 38127 ft 420 kts 344°
2026-05-04 07:10 48.63902 21.26827 38122 ft 419 kts 344°
2026-05-04 07:12 48.86436 21.18226 37369 ft 416 kts 347°
2026-05-04 07:12 48.89275 21.17208 36598 ft 419 kts 347°
2026-05-04 07:12 48.92106 21.16187 36008 ft 421 kts 347°
2026-05-04 07:12 48.94953 21.15154 35417 ft 424 kts 347°
2026-05-04 07:13 48.97835 21.14105 34817 ft 425 kts 347°
2026-05-04 07:13 49.00716 21.13049 34185 ft 427 kts 347°
2026-05-04 07:13 49.03580 21.11997 33539 ft 428 kts 347°
2026-05-04 07:14 49.15196 21.07761 30926 ft 431 kts 347°
2026-05-04 07:14 49.18125 21.06698 30267 ft 432 kts 347°
2026-05-04 07:15 49.21022 21.05648 29607 ft 432 kts 347°
2026-05-04 07:15 49.23927 21.04597 28951 ft 432 kts 347°
2026-05-04 07:15 49.26847 21.03545 28296 ft 432 kts 347°
2026-05-04 07:15 49.29772 21.02495 27638 ft 432 kts 347°
2026-05-04 07:16 49.32696 21.01447 26979 ft 431 kts 347°
2026-05-04 07:16 49.35616 21.00403 26313 ft 431 kts 347°
2026-05-04 07:16 49.38528 20.99366 25537 ft 433 kts 347°
2026-05-04 07:16 49.41430 20.98338 24756 ft 435 kts 347°
2026-05-04 07:17 49.44369 20.97305 23958 ft 436 kts 347°
2026-05-04 07:17 49.47316 20.96279 23163 ft 437 kts 347°
2026-05-04 07:17 49.50303 20.95245 22360 ft 437 kts 347°
2026-05-04 07:17 49.53270 20.94224 21574 ft 438 kts 347°
2026-05-04 07:18 49.56222 20.93214 20791 ft 438 kts 347°
2026-05-04 07:18 49.59188 20.92201 20006 ft 437 kts 347°
2026-05-04 07:18 49.62149 20.91193 19243 ft 436 kts 347°
2026-05-04 07:18 49.65071 20.90205 18755 ft 429 kts 347°
2026-05-04 07:19 49.67961 20.89238 18634 ft 413 kts 347°
2026-05-04 07:19 49.70676 20.88342 18571 ft 391 kts 347°
2026-05-04 07:19 49.73248 20.87504 18513 ft 369 kts 347°
2026-05-04 07:19 49.75703 20.86709 18426 ft 350 kts 347°
2026-05-04 07:20 49.78040 20.85955 18024 ft 343 kts 347°
2026-05-04 07:20 49.80341 20.85118 17507 ft 338 kts 340°
2026-05-04 07:20 49.82387 20.83455 16998 ft 332 kts 320°
2026-05-04 07:20 49.83888 20.80809 16495 ft 327 kts 303°
2026-05-04 07:22 49.92173 20.59692 11722 ft 330 kts 300°
2026-05-04 07:22 49.93367 20.56676 11022 ft 330 kts 300°
2026-05-04 07:23 49.94564 20.53650 10358 ft 328 kts 300°
2026-05-04 07:23 49.95722 20.50719 10084 ft 315 kts 300°
2026-05-04 07:23 49.96841 20.47889 10038 ft 295 kts 300°
2026-05-04 07:23 49.97872 20.45275 9995 ft 277 kts 300°
2026-05-04 07:24 49.98842 20.42808 9899 ft 263 kts 300°
2026-05-04 07:24 49.99776 20.40431 9753 ft 253 kts 300°
2026-05-04 07:24 50.00685 20.38109 9394 ft 252 kts 300°
2026-05-04 07:24 50.01591 20.35794 9005 ft 252 kts 300°
2026-05-04 07:25 50.02508 20.33450 8517 ft 257 kts 299°
2026-05-04 07:26 50.10152 20.17162 5144 ft 263 kts 311°
2026-05-04 07:27 50.11353 20.15138 4934 ft 251 kts 311°
2026-05-04 07:27 50.12416 20.13098 4840 ft 233 kts 295°
2026-05-04 07:27 50.12658 20.10770 4769 ft 211 kts 257°
2026-05-04 07:27 50.12128 20.08719 4554 ft 204 kts 245°
2026-05-04 07:28 50.11682 20.06628 4247 ft 202 kts 255°
2026-05-04 07:28 50.11377 20.04514 3973 ft 198 kts 256°
2026-05-04 07:28 50.11091 20.02464 3705 ft 195 kts 256°
2026-05-04 07:28 50.10804 20.00405 3439 ft 191 kts 256°
2026-05-04 07:29 50.10528 19.98398 3181 ft 189 kts 256°
2026-05-04 07:29 50.10256 19.96421 2926 ft 186 kts 257°
2026-05-04 07:29 50.09987 19.94471 2679 ft 186 kts 257°
2026-05-04 07:29 50.09721 19.92543 2433 ft 178 kts 256°
2026-05-04 07:30 50.09468 19.90713 2182 ft 167 kts 256°
2026-05-04 07:30 50.09233 19.89007 1985 ft 155 kts 256°
2026-05-04 07:30 50.09016 19.87436 1783 ft 142 kts 257°
2026-05-04 07:30 50.08810 19.85952 1583 ft 138 kts 257°
2026-05-04 07:31 50.08608 19.84492 1408 ft 138 kts 257°
2026-05-04 07:31 50.08405 19.83031 1224 ft 139 kts 257°
2026-05-04 07:33 50.07517 19.78088 800 ft 12 kts 181°
2026-05-04 07:33 50.07477 19.78172 800 ft 11 kts 79°
2026-05-04 07:33 50.07496 19.78313 800 ft 16 kts 78°
2026-05-04 07:33 50.07529 19.78551 800 ft 27 kts 78°
2026-05-04 07:34 50.07569 19.78843 800 ft 27 kts 78°
2026-05-04 07:34 50.07610 19.79127 800 ft 26 kts 78°
2026-05-04 07:34 50.07647 19.79398 800 ft 22 kts 78°
2026-05-04 07:34 50.07679 19.79633 800 ft 21 kts 78°
2026-05-04 07:35 50.07705 19.79816 800 ft 10 kts 78°
2026-05-04 07:35 50.07664 19.79879 800 ft 10 kts 168°
2026-05-04 07:35 50.07585 19.79906 800 ft 12 kts 167°
2026-05-04 07:35 50.07494 19.79938 800 ft 13 kts 167°
2026-05-04 07:36 50.07415 19.79960 800 ft 9 kts 188°
2026-05-04 07:36 50.07370 19.79909 800 ft 6 kts 196°
2026-05-04 07:38 50.07317 19.79921 800 ft 0 kts 167°